ジャコビニ-ツィナー彗星

21P/Giacobini-Zinner (2018)

English version
Home page
Updated on June 11, 2016

---------------------------------------------------------------------

・ プロフィール

・ 軌道要素

Epoch 2018 Aug. 30.0 TT = JDT 2458360.5
T 2018 Sept. 10.33500 TT                                Kobayashi
q   1.0127778            (2000.0)            P               Q
n   0.15064563     Peri.  172.86147     +0.98462785     -0.10355853
a   3.4980958      Node   195.39329     +0.12223528     +0.98376758
e   0.7104774      Incl.   31.99768     +0.12476595     -0.14655028
P   6.54
From 930 observations 1998 Nov. 22-2013 Apr. 1, mean residual 0".9.
     Nongravitational parameters A1 = +0.42, A2 = -0.0985.

・ 星図

・ 光度変化

        m1 = 8.7 + 5 logΔ + 18.5 log r  [ ,0]  (              〜2018年 9月10日)
        m1 = 8.8 + 5 logΔ + 15.0 log r  [0, ]  (2018年 9月10日〜              )

---------------------------------------------------------------------

軌道要素はM.P.E.C. 2015-M77に掲載されたものです。
星図はステラナビゲータ Ver.8 (アストロアーツ) で作成したものです。
光度グラフはComet for Windowsで作成したものです。

---------------------------------------------------------------------

Copyright(C) Seiichi Yoshida (comet@aerith.net). All rights reserved.